Index of /20260505/WXO-DD/model_caps/3km/12/040
Name Last modified Size Description
Parent Directory -
20260505T12Z_MSC_CAPS_AbsoluteVorticity_IsbL-0250_RLatLon0.03_PT040H.grib2 2026-05-05 18:23 1.0M
20260505T12Z_MSC_CAPS_AbsoluteVorticity_IsbL-0500_RLatLon0.03_PT040H.grib2 2026-05-05 18:23 1.4M
20260505T12Z_MSC_CAPS_AbsoluteVorticity_IsbL-0700_RLatLon0.03_PT040H.grib2 2026-05-05 18:23 1.3M
20260505T12Z_MSC_CAPS_AbsoluteVorticity_IsbL-0850_RLatLon0.03_PT040H.grib2 2026-05-05 18:23 1.2M
20260505T12Z_MSC_CAPS_AbsoluteVorticity_IsbL-1000_RLatLon0.03_PT040H.grib2 2026-05-05 18:23 1.3M
20260505T12Z_MSC_CAPS_AirDensity_AGL-120m_RLatLon0.03_PT040H.grib2 2026-05-05 18:23 1.4M
20260505T12Z_MSC_CAPS_AirDensity_AGL-40m_RLatLon0.03_PT040H.grib2 2026-05-05 18:23 1.4M
20260505T12Z_MSC_CAPS_AirDensity_AGL-80m_RLatLon0.03_PT040H.grib2 2026-05-05 18:23 1.4M
20260505T12Z_MSC_CAPS_AirTemp_AGL-120m_RLatLon0.03_PT040H.grib2 2026-05-05 18:23 1.8M
20260505T12Z_MSC_CAPS_AirTemp_AGL-2m_RLatLon0.03_PT040H.grib2 2026-05-05 18:23 2.1M
20260505T12Z_MSC_CAPS_AirTemp_AGL-40m_RLatLon0.03_PT040H.grib2 2026-05-05 18:23 1.9M
20260505T12Z_MSC_CAPS_AirTemp_AGL-80m_RLatLon0.03_PT040H.grib2 2026-05-05 18:23 1.8M
20260505T12Z_MSC_CAPS_AirTemp_IsbL-0050_RLatLon0.03_PT040H.grib2 2026-05-05 18:23 684K
20260505T12Z_MSC_CAPS_AirTemp_IsbL-0100_RLatLon0.03_PT040H.grib2 2026-05-05 18:23 786K
20260505T12Z_MSC_CAPS_AirTemp_IsbL-0150_RLatLon0.03_PT040H.grib2 2026-05-05 18:23 745K
20260505T12Z_MSC_CAPS_AirTemp_IsbL-0175_RLatLon0.03_PT040H.grib2 2026-05-05 18:23 774K
20260505T12Z_MSC_CAPS_AirTemp_IsbL-0200_RLatLon0.03_PT040H.grib2 2026-05-05 18:23 800K
20260505T12Z_MSC_CAPS_AirTemp_IsbL-0225_RLatLon0.03_PT040H.grib2 2026-05-05 18:23 800K
20260505T12Z_MSC_CAPS_AirTemp_IsbL-0250_RLatLon0.03_PT040H.grib2 2026-05-05 18:23 1.0M
20260505T12Z_MSC_CAPS_AirTemp_IsbL-0275_RLatLon0.03_PT040H.grib2 2026-05-05 18:23 1.0M
20260505T12Z_MSC_CAPS_AirTemp_IsbL-0300_RLatLon0.03_PT040H.grib2 2026-05-05 18:23 1.0M
20260505T12Z_MSC_CAPS_AirTemp_IsbL-0350_RLatLon0.03_PT040H.grib2 2026-05-05 18:23 749K
20260505T12Z_MSC_CAPS_AirTemp_IsbL-0400_RLatLon0.03_PT040H.grib2 2026-05-05 18:23 753K
20260505T12Z_MSC_CAPS_AirTemp_IsbL-0450_RLatLon0.03_PT040H.grib2 2026-05-05 18:23 770K
20260505T12Z_MSC_CAPS_AirTemp_IsbL-0500_RLatLon0.03_PT040H.grib2 2026-05-05 18:23 787K
20260505T12Z_MSC_CAPS_AirTemp_IsbL-0550_RLatLon0.03_PT040H.grib2 2026-05-05 18:23 798K
20260505T12Z_MSC_CAPS_AirTemp_IsbL-0600_RLatLon0.03_PT040H.grib2 2026-05-05 18:23 814K
20260505T12Z_MSC_CAPS_AirTemp_IsbL-0650_RLatLon0.03_PT040H.grib2 2026-05-05 18:23 849K
20260505T12Z_MSC_CAPS_AirTemp_IsbL-0700_RLatLon0.03_PT040H.grib2 2026-05-05 18:23 888K
20260505T12Z_MSC_CAPS_AirTemp_IsbL-0750_RLatLon0.03_PT040H.grib2 2026-05-05 18:23 924K
20260505T12Z_MSC_CAPS_AirTemp_IsbL-0800_RLatLon0.03_PT040H.grib2 2026-05-05 18:23 1.1M
20260505T12Z_MSC_CAPS_AirTemp_IsbL-0850_RLatLon0.03_PT040H.grib2 2026-05-05 18:23 1.1M
20260505T12Z_MSC_CAPS_AirTemp_IsbL-0875_RLatLon0.03_PT040H.grib2 2026-05-05 18:23 1.1M
20260505T12Z_MSC_CAPS_AirTemp_IsbL-0900_RLatLon0.03_PT040H.grib2 2026-05-05 18:23 1.1M
20260505T12Z_MSC_CAPS_AirTemp_IsbL-0925_RLatLon0.03_PT040H.grib2 2026-05-05 18:23 1.1M
20260505T12Z_MSC_CAPS_AirTemp_IsbL-0950_RLatLon0.03_PT040H.grib2 2026-05-05 18:23 1.1M
20260505T12Z_MSC_CAPS_AirTemp_IsbL-0970_RLatLon0.03_PT040H.grib2 2026-05-05 18:23 1.2M
20260505T12Z_MSC_CAPS_AirTemp_IsbL-0985_RLatLon0.03_PT040H.grib2 2026-05-05 18:23 1.1M
20260505T12Z_MSC_CAPS_AirTemp_IsbL-1000_RLatLon0.03_PT040H.grib2 2026-05-05 18:23 1.1M
20260505T12Z_MSC_CAPS_AirTemp_IsbL-1015_RLatLon0.03_PT040H.grib2 2026-05-05 18:23 1.1M
20260505T12Z_MSC_CAPS_Albedo_Sfc_RLatLon0.03_PT040H.grib2 2026-05-05 18:23 2.7M
20260505T12Z_MSC_CAPS_CAPE_Sfc_RLatLon0.03_PT040H.grib2 2026-05-05 18:23 215K
20260505T12Z_MSC_CAPS_CloudWater_EAtm_RLatLon0.03_PT040H.grib2 2026-05-05 18:23 1.5M
20260505T12Z_MSC_CAPS_ConvectivePrecip-Accum_Sfc_RLatLon0.03_PT040H.grib2 2026-05-05 18:23 4.9M
20260505T12Z_MSC_CAPS_DewPointDepression_AGL-120m_RLatLon0.03_PT040H.grib2 2026-05-05 18:23 2.2M
20260505T12Z_MSC_CAPS_DewPointDepression_AGL-2m_RLatLon0.03_PT040H.grib2 2026-05-05 18:23 2.3M
20260505T12Z_MSC_CAPS_DewPointDepression_AGL-40m_RLatLon0.03_PT040H.grib2 2026-05-05 18:23 2.2M
20260505T12Z_MSC_CAPS_DewPointDepression_AGL-80m_RLatLon0.03_PT040H.grib2 2026-05-05 18:23 2.2M
20260505T12Z_MSC_CAPS_DewPointDepression_IsbL-0050_RLatLon0.03_PT040H.grib2 2026-05-05 18:23 2.0K
20260505T12Z_MSC_CAPS_DewPointDepression_IsbL-0100_RLatLon0.03_PT040H.grib2 2026-05-05 18:23 51K
20260505T12Z_MSC_CAPS_DewPointDepression_IsbL-0150_RLatLon0.03_PT040H.grib2 2026-05-05 18:23 49K
20260505T12Z_MSC_CAPS_DewPointDepression_IsbL-0175_RLatLon0.03_PT040H.grib2 2026-05-05 18:23 209K
20260505T12Z_MSC_CAPS_DewPointDepression_IsbL-0200_RLatLon0.03_PT040H.grib2 2026-05-05 18:23 426K
20260505T12Z_MSC_CAPS_DewPointDepression_IsbL-0225_RLatLon0.03_PT040H.grib2 2026-05-05 18:23 609K
20260505T12Z_MSC_CAPS_DewPointDepression_IsbL-0250_RLatLon0.03_PT040H.grib2 2026-05-05 18:23 852K
20260505T12Z_MSC_CAPS_DewPointDepression_IsbL-0275_RLatLon0.03_PT040H.grib2 2026-05-05 18:23 1.0M
20260505T12Z_MSC_CAPS_DewPointDepression_IsbL-0300_RLatLon0.03_PT040H.grib2 2026-05-05 18:23 1.1M
20260505T12Z_MSC_CAPS_DewPointDepression_IsbL-0350_RLatLon0.03_PT040H.grib2 2026-05-05 18:23 1.1M
20260505T12Z_MSC_CAPS_DewPointDepression_IsbL-0400_RLatLon0.03_PT040H.grib2 2026-05-05 18:23 1.1M
20260505T12Z_MSC_CAPS_DewPointDepression_IsbL-0450_RLatLon0.03_PT040H.grib2 2026-05-05 18:23 1.2M
20260505T12Z_MSC_CAPS_DewPointDepression_IsbL-0500_RLatLon0.03_PT040H.grib2 2026-05-05 18:23 1.2M
20260505T12Z_MSC_CAPS_DewPointDepression_IsbL-0550_RLatLon0.03_PT040H.grib2 2026-05-05 18:23 1.2M
20260505T12Z_MSC_CAPS_DewPointDepression_IsbL-0600_RLatLon0.03_PT040H.grib2 2026-05-05 18:23 1.3M
20260505T12Z_MSC_CAPS_DewPointDepression_IsbL-0650_RLatLon0.03_PT040H.grib2 2026-05-05 18:23 1.3M
20260505T12Z_MSC_CAPS_DewPointDepression_IsbL-0700_RLatLon0.03_PT040H.grib2 2026-05-05 18:23 1.3M
20260505T12Z_MSC_CAPS_DewPointDepression_IsbL-0750_RLatLon0.03_PT040H.grib2 2026-05-05 18:23 1.4M
20260505T12Z_MSC_CAPS_DewPointDepression_IsbL-0800_RLatLon0.03_PT040H.grib2 2026-05-05 18:23 1.4M
20260505T12Z_MSC_CAPS_DewPointDepression_IsbL-0850_RLatLon0.03_PT040H.grib2 2026-05-05 18:23 1.4M
20260505T12Z_MSC_CAPS_DewPointDepression_IsbL-0875_RLatLon0.03_PT040H.grib2 2026-05-05 18:23 1.4M
20260505T12Z_MSC_CAPS_DewPointDepression_IsbL-0900_RLatLon0.03_PT040H.grib2 2026-05-05 18:23 1.4M
20260505T12Z_MSC_CAPS_DewPointDepression_IsbL-0925_RLatLon0.03_PT040H.grib2 2026-05-05 18:23 1.4M
20260505T12Z_MSC_CAPS_DewPointDepression_IsbL-0950_RLatLon0.03_PT040H.grib2 2026-05-05 18:23 1.4M
20260505T12Z_MSC_CAPS_DewPointDepression_IsbL-0970_RLatLon0.03_PT040H.grib2 2026-05-05 18:23 1.4M
20260505T12Z_MSC_CAPS_DewPointDepression_IsbL-0985_RLatLon0.03_PT040H.grib2 2026-05-05 18:23 1.4M
20260505T12Z_MSC_CAPS_DewPointDepression_IsbL-1000_RLatLon0.03_PT040H.grib2 2026-05-05 18:23 1.4M
20260505T12Z_MSC_CAPS_DewPointDepression_IsbL-1015_RLatLon0.03_PT040H.grib2 2026-05-05 18:23 1.4M
20260505T12Z_MSC_CAPS_DewPoint_AGL-120m_RLatLon0.03_PT040H.grib2 2026-05-05 18:23 3.7M
20260505T12Z_MSC_CAPS_DewPoint_AGL-2m_RLatLon0.03_PT040H.grib2 2026-05-05 18:23 1.8M
20260505T12Z_MSC_CAPS_DewPoint_AGL-40m_RLatLon0.03_PT040H.grib2 2026-05-05 18:23 3.8M
20260505T12Z_MSC_CAPS_DewPoint_AGL-80m_RLatLon0.03_PT040H.grib2 2026-05-05 18:23 3.8M
20260505T12Z_MSC_CAPS_DownwardLongwaveRadiationFlux-Accum_Sfc_RLatLon0.03_PT040H.grib2 2026-05-05 18:23 2.7M
20260505T12Z_MSC_CAPS_DownwardShortwaveRadiationFlux-Accum_NTAtm_RLatLon0.03_PT040H.grib2 2026-05-05 18:23 498K
20260505T12Z_MSC_CAPS_DownwardShortwaveRadiationFlux-Accum_Sfc_RLatLon0.03_PT040H.grib2 2026-05-05 18:23 3.0M
20260505T12Z_MSC_CAPS_FreezingRain-Accum_Sfc_RLatLon0.03_PT040H.grib2 2026-05-05 18:23 1.1M
20260505T12Z_MSC_CAPS_GeopotentialHeight_IsbL-0050_RLatLon0.03_PT040H.grib2 2026-05-05 18:23 617K
20260505T12Z_MSC_CAPS_GeopotentialHeight_IsbL-0100_RLatLon0.03_PT040H.grib2 2026-05-05 18:23 737K
20260505T12Z_MSC_CAPS_GeopotentialHeight_IsbL-0150_RLatLon0.03_PT040H.grib2 2026-05-05 18:23 603K
20260505T12Z_MSC_CAPS_GeopotentialHeight_IsbL-0175_RLatLon0.03_PT040H.grib2 2026-05-05 18:23 719K
20260505T12Z_MSC_CAPS_GeopotentialHeight_IsbL-0200_RLatLon0.03_PT040H.grib2 2026-05-05 18:23 740K
20260505T12Z_MSC_CAPS_GeopotentialHeight_IsbL-0225_RLatLon0.03_PT040H.grib2 2026-05-05 18:23 755K
20260505T12Z_MSC_CAPS_GeopotentialHeight_IsbL-0250_RLatLon0.03_PT040H.grib2 2026-05-05 18:23 766K
20260505T12Z_MSC_CAPS_GeopotentialHeight_IsbL-0275_RLatLon0.03_PT040H.grib2 2026-05-05 18:23 772K
20260505T12Z_MSC_CAPS_GeopotentialHeight_IsbL-0300_RLatLon0.03_PT040H.grib2 2026-05-05 18:23 776K
20260505T12Z_MSC_CAPS_GeopotentialHeight_IsbL-0350_RLatLon0.03_PT040H.grib2 2026-05-05 18:23 777K
20260505T12Z_MSC_CAPS_GeopotentialHeight_IsbL-0400_RLatLon0.03_PT040H.grib2 2026-05-05 18:23 774K
20260505T12Z_MSC_CAPS_GeopotentialHeight_IsbL-0450_RLatLon0.03_PT040H.grib2 2026-05-05 18:23 767K
20260505T12Z_MSC_CAPS_GeopotentialHeight_IsbL-0500_RLatLon0.03_PT040H.grib2 2026-05-05 18:23 758K
20260505T12Z_MSC_CAPS_GeopotentialHeight_IsbL-0550_RLatLon0.03_PT040H.grib2 2026-05-05 18:23 639K
20260505T12Z_MSC_CAPS_GeopotentialHeight_IsbL-0600_RLatLon0.03_PT040H.grib2 2026-05-05 18:23 634K
20260505T12Z_MSC_CAPS_GeopotentialHeight_IsbL-0650_RLatLon0.03_PT040H.grib2 2026-05-05 18:23 808K
20260505T12Z_MSC_CAPS_GeopotentialHeight_IsbL-0700_RLatLon0.03_PT040H.grib2 2026-05-05 18:23 807K
20260505T12Z_MSC_CAPS_GeopotentialHeight_IsbL-0750_RLatLon0.03_PT040H.grib2 2026-05-05 18:23 809K
20260505T12Z_MSC_CAPS_GeopotentialHeight_IsbL-0800_RLatLon0.03_PT040H.grib2 2026-05-05 18:23 893K
20260505T12Z_MSC_CAPS_GeopotentialHeight_IsbL-0850_RLatLon0.03_PT040H.grib2 2026-05-05 18:23 898K
20260505T12Z_MSC_CAPS_GeopotentialHeight_IsbL-0875_RLatLon0.03_PT040H.grib2 2026-05-05 18:23 901K
20260505T12Z_MSC_CAPS_GeopotentialHeight_IsbL-0900_RLatLon0.03_PT040H.grib2 2026-05-05 18:23 906K
20260505T12Z_MSC_CAPS_GeopotentialHeight_IsbL-0925_RLatLon0.03_PT040H.grib2 2026-05-05 18:23 913K
20260505T12Z_MSC_CAPS_GeopotentialHeight_IsbL-0950_RLatLon0.03_PT040H.grib2 2026-05-05 18:23 836K
20260505T12Z_MSC_CAPS_GeopotentialHeight_IsbL-0970_RLatLon0.03_PT040H.grib2 2026-05-05 18:23 851K
20260505T12Z_MSC_CAPS_GeopotentialHeight_IsbL-0985_RLatLon0.03_PT040H.grib2 2026-05-05 18:23 858K
20260505T12Z_MSC_CAPS_GeopotentialHeight_IsbL-1000_RLatLon0.03_PT040H.grib2 2026-05-05 18:23 870K
20260505T12Z_MSC_CAPS_GeopotentialHeight_IsbL-1015_RLatLon0.03_PT040H.grib2 2026-05-05 18:23 882K
20260505T12Z_MSC_CAPS_GeopotentialHeight_Sfc_RLatLon0.03_PT040H.grib2 2026-05-05 18:23 1.0M
20260505T12Z_MSC_CAPS_IcePellets-Accum_Sfc_RLatLon0.03_PT040H.grib2 2026-05-05 18:23 113K
20260505T12Z_MSC_CAPS_LatentHeatNetFlux_Sfc_RLatLon0.03_PT040H.grib2 2026-05-05 18:23 1.9M
20260505T12Z_MSC_CAPS_LiftedIndex-MU-VT_IsbL-0500_RLatLon0.03_PT040H.grib2 2026-05-05 18:23 3.3M
20260505T12Z_MSC_CAPS_MixedLayerThickness_Sfc_RLatLon0.03_PT040H.nc 2026-05-05 18:13 17M
20260505T12Z_MSC_CAPS_NetLongwaveRadiationFlux-Accum_Sfc_RLatLon0.03_PT040H.grib2 2026-05-05 18:23 2.9M
20260505T12Z_MSC_CAPS_NetShortwaveRadiationFlux-Accum_Sfc_RLatLon0.03_PT040H.grib2 2026-05-05 18:23 2.9M
20260505T12Z_MSC_CAPS_PlanetaryBoundaryLayerHeight_Sfc_RLatLon0.03_PT040H.grib2 2026-05-05 18:23 3.1M
20260505T12Z_MSC_CAPS_Precip-Accum_Sfc_RLatLon0.03_PT040H.grib2 2026-05-05 18:23 5.7M
20260505T12Z_MSC_CAPS_PrecipRate_Sfc_RLatLon0.03_PT040H.grib2 2026-05-05 18:23 632K
20260505T12Z_MSC_CAPS_PrecipType-Instant_Sfc_RLatLon0.03_PT040H.grib2 2026-05-05 18:23 2.1M
20260505T12Z_MSC_CAPS_Pressure_MSL_RLatLon0.03_PT040H.grib2 2026-05-05 18:23 759K
20260505T12Z_MSC_CAPS_Pressure_Sfc_RLatLon0.03_PT040H.grib2 2026-05-05 18:23 1.2M
20260505T12Z_MSC_CAPS_RadiativeTemp_Sfc_RLatLon0.03_PT040H.grib2 2026-05-05 18:23 2.1M
20260505T12Z_MSC_CAPS_Rain-Accum_Sfc_RLatLon0.03_PT040H.grib2 2026-05-05 18:23 3.1M
20260505T12Z_MSC_CAPS_RelativeHumidity_AGL-120m_RLatLon0.03_PT040H.grib2 2026-05-05 18:23 2.9M
20260505T12Z_MSC_CAPS_RelativeHumidity_AGL-2m_RLatLon0.03_PT040H.grib2 2026-05-05 18:23 3.0M
20260505T12Z_MSC_CAPS_RelativeHumidity_AGL-40m_RLatLon0.03_PT040H.grib2 2026-05-05 18:23 3.0M
20260505T12Z_MSC_CAPS_RelativeHumidity_AGL-80m_RLatLon0.03_PT040H.grib2 2026-05-05 18:23 2.9M
20260505T12Z_MSC_CAPS_RelativeHumidity_IsbL-0050_RLatLon0.03_PT040H.grib2 2026-05-05 18:23 1.0M
20260505T12Z_MSC_CAPS_RelativeHumidity_IsbL-0100_RLatLon0.03_PT040H.grib2 2026-05-05 18:23 1.1M
20260505T12Z_MSC_CAPS_RelativeHumidity_IsbL-0150_RLatLon0.03_PT040H.grib2 2026-05-05 18:23 477K
20260505T12Z_MSC_CAPS_RelativeHumidity_IsbL-0175_RLatLon0.03_PT040H.grib2 2026-05-05 18:23 484K
20260505T12Z_MSC_CAPS_RelativeHumidity_IsbL-0200_RLatLon0.03_PT040H.grib2 2026-05-05 18:23 670K
20260505T12Z_MSC_CAPS_RelativeHumidity_IsbL-0225_RLatLon0.03_PT040H.grib2 2026-05-05 18:23 902K
20260505T12Z_MSC_CAPS_RelativeHumidity_IsbL-0250_RLatLon0.03_PT040H.grib2 2026-05-05 18:23 1.1M
20260505T12Z_MSC_CAPS_RelativeHumidity_IsbL-0275_RLatLon0.03_PT040H.grib2 2026-05-05 18:23 1.4M
20260505T12Z_MSC_CAPS_RelativeHumidity_IsbL-0300_RLatLon0.03_PT040H.grib2 2026-05-05 18:23 1.7M
20260505T12Z_MSC_CAPS_RelativeHumidity_IsbL-0350_RLatLon0.03_PT040H.grib2 2026-05-05 18:23 2.0M
20260505T12Z_MSC_CAPS_RelativeHumidity_IsbL-0400_RLatLon0.03_PT040H.grib2 2026-05-05 18:23 1.9M
20260505T12Z_MSC_CAPS_RelativeHumidity_IsbL-0450_RLatLon0.03_PT040H.grib2 2026-05-05 18:23 2.0M
20260505T12Z_MSC_CAPS_RelativeHumidity_IsbL-0500_RLatLon0.03_PT040H.grib2 2026-05-05 18:23 2.2M
20260505T12Z_MSC_CAPS_RelativeHumidity_IsbL-0550_RLatLon0.03_PT040H.grib2 2026-05-05 18:23 2.2M
20260505T12Z_MSC_CAPS_RelativeHumidity_IsbL-0600_RLatLon0.03_PT040H.grib2 2026-05-05 18:23 2.1M
20260505T12Z_MSC_CAPS_RelativeHumidity_IsbL-0650_RLatLon0.03_PT040H.grib2 2026-05-05 18:23 2.3M
20260505T12Z_MSC_CAPS_RelativeHumidity_IsbL-0700_RLatLon0.03_PT040H.grib2 2026-05-05 18:23 2.3M
20260505T12Z_MSC_CAPS_RelativeHumidity_IsbL-0750_RLatLon0.03_PT040H.grib2 2026-05-05 18:23 2.4M
20260505T12Z_MSC_CAPS_RelativeHumidity_IsbL-0800_RLatLon0.03_PT040H.grib2 2026-05-05 18:23 2.5M
20260505T12Z_MSC_CAPS_RelativeHumidity_IsbL-0850_RLatLon0.03_PT040H.grib2 2026-05-05 18:23 2.6M
20260505T12Z_MSC_CAPS_RelativeHumidity_IsbL-0875_RLatLon0.03_PT040H.grib2 2026-05-05 18:23 2.7M
20260505T12Z_MSC_CAPS_RelativeHumidity_IsbL-0900_RLatLon0.03_PT040H.grib2 2026-05-05 18:23 2.8M
20260505T12Z_MSC_CAPS_RelativeHumidity_IsbL-0925_RLatLon0.03_PT040H.grib2 2026-05-05 18:23 2.8M
20260505T12Z_MSC_CAPS_RelativeHumidity_IsbL-0950_RLatLon0.03_PT040H.grib2 2026-05-05 18:23 2.9M
20260505T12Z_MSC_CAPS_RelativeHumidity_IsbL-0970_RLatLon0.03_PT040H.grib2 2026-05-05 18:23 2.9M
20260505T12Z_MSC_CAPS_RelativeHumidity_IsbL-0985_RLatLon0.03_PT040H.grib2 2026-05-05 18:23 3.0M
20260505T12Z_MSC_CAPS_RelativeHumidity_IsbL-1000_RLatLon0.03_PT040H.grib2 2026-05-05 18:23 3.0M
20260505T12Z_MSC_CAPS_RelativeHumidity_IsbL-1015_RLatLon0.03_PT040H.grib2 2026-05-05 18:23 3.0M
20260505T12Z_MSC_CAPS_Runoff-Accum_Sfc_RLatLon0.03_PT040H.grib2 2026-05-05 18:23 332K
20260505T12Z_MSC_CAPS_SeaIceAreaFraction_Sfc_RLatLon0.03_PT040H.nc 2026-05-05 18:13 15M
20260505T12Z_MSC_CAPS_SeaIceCompressiveStrength_Sfc_RLatLon0.03_PT040H.nc 2026-05-05 18:13 15M
20260505T12Z_MSC_CAPS_SeaIceDivergence_Sfc_RLatLon0.03_PT040H.nc 2026-05-05 18:13 15M
20260505T12Z_MSC_CAPS_SeaIceInternalPressure_Sfc_RLatLon0.03_PT040H.nc 2026-05-05 18:13 15M
20260505T12Z_MSC_CAPS_SeaIceShear_Sfc_RLatLon0.03_PT040H.nc 2026-05-05 18:13 15M
20260505T12Z_MSC_CAPS_SeaIceSnowTemp_Sfc_RLatLon0.03_PT040H.nc 2026-05-05 18:13 14M
20260505T12Z_MSC_CAPS_SeaIceSnowVolume_Sfc_RLatLon0.03_PT040H.nc 2026-05-05 18:13 15M
20260505T12Z_MSC_CAPS_SeaIceVelocityX_Sfc_RLatLon0.03_PT040H.nc 2026-05-05 18:13 15M
20260505T12Z_MSC_CAPS_SeaIceVelocityY_Sfc_RLatLon0.03_PT040H.nc 2026-05-05 18:13 15M
20260505T12Z_MSC_CAPS_SeaIceVolume_Sfc_RLatLon0.03_PT040H.nc 2026-05-05 18:13 15M
20260505T12Z_MSC_CAPS_SeaSurfaceHeight_Sfc_RLatLon0.03_PT040H.nc 2026-05-05 18:13 16M
20260505T12Z_MSC_CAPS_SeaWaterSalinity_DBS-0.5m_RLatLon0.03_PT040H.nc 2026-05-05 18:13 16M
20260505T12Z_MSC_CAPS_SeaWaterSalinity_DBS-all_RLatLon0.03_PT040H.nc 2026-05-05 18:13 107M
20260505T12Z_MSC_CAPS_SeaWaterTemp_DBS-0.5m_RLatLon0.03_PT040H.nc 2026-05-05 18:13 15M
20260505T12Z_MSC_CAPS_SeaWaterTemp_DBS-all_RLatLon0.03_PT040H.nc 2026-05-05 18:13 88M
20260505T12Z_MSC_CAPS_SeaWaterVelocityX_DBS-0.5m_RLatLon0.03_PT040H.nc 2026-05-05 18:13 18M
20260505T12Z_MSC_CAPS_SeaWaterVelocityX_DBS-all_RLatLon0.03_PT040H.nc 2026-05-05 18:13 213M
20260505T12Z_MSC_CAPS_SeaWaterVelocityY_DBS-0.5m_RLatLon0.03_PT040H.nc 2026-05-05 18:13 18M
20260505T12Z_MSC_CAPS_SeaWaterVelocityY_DBS-all_RLatLon0.03_PT040H.nc 2026-05-05 18:13 218M
20260505T12Z_MSC_CAPS_SensibleHeatNetFlux_Sfc_RLatLon0.03_PT040H.grib2 2026-05-05 18:23 2.1M
20260505T12Z_MSC_CAPS_ShowalterIndex_IsbL-0500_RLatLon0.03_PT040H.grib2 2026-05-05 18:23 4.3M
20260505T12Z_MSC_CAPS_Snow-Accum_Sfc_RLatLon0.03_PT040H.grib2 2026-05-05 18:23 4.5M
20260505T12Z_MSC_CAPS_SnowDensity_Sfc_RLatLon0.03_PT040H.grib2 2026-05-05 18:23 1.3M
20260505T12Z_MSC_CAPS_SnowDepthWaterEquivalent_Sfc_RLatLon0.03_PT040H.grib2 2026-05-05 18:23 651K
20260505T12Z_MSC_CAPS_SnowDepth_Sfc_RLatLon0.03_PT040H.grib2 2026-05-05 18:23 1.1M
20260505T12Z_MSC_CAPS_SoilTemp_DBS-0to10cm_RLatLon0.03_PT040H.grib2 2026-05-05 18:23 1.7M
20260505T12Z_MSC_CAPS_SoilTemp_Sfc_RLatLon0.03_PT040H.grib2 2026-05-05 18:23 1.8M
20260505T12Z_MSC_CAPS_SoilVolumetricIceContent_Sfc_RLatLon0.03_PT040H.grib2 2026-05-05 18:23 1.4M
20260505T12Z_MSC_CAPS_SoilVolumetricWaterContent_DBS-0to10cm_RLatLon0.03_PT040H.grib2 2026-05-05 18:23 1.3M
20260505T12Z_MSC_CAPS_SoilVolumetricWaterContent_DBS-0to1cm_RLatLon0.03_PT040H.grib2 2026-05-05 18:23 1.8M
20260505T12Z_MSC_CAPS_SpecificHumidity_AGL-120m_RLatLon0.03_PT040H.grib2 2026-05-05 18:23 1.9M
20260505T12Z_MSC_CAPS_SpecificHumidity_AGL-2m_RLatLon0.03_PT040H.grib2 2026-05-05 18:23 2.2M
20260505T12Z_MSC_CAPS_SpecificHumidity_AGL-40m_RLatLon0.03_PT040H.grib2 2026-05-05 18:23 2.0M
20260505T12Z_MSC_CAPS_SpecificHumidity_AGL-80m_RLatLon0.03_PT040H.grib2 2026-05-05 18:23 1.9M
20260505T12Z_MSC_CAPS_SpecificHumidity_IsbL-0050_RLatLon0.03_PT040H.grib2 2026-05-05 18:23 937K
20260505T12Z_MSC_CAPS_SpecificHumidity_IsbL-0100_RLatLon0.03_PT040H.grib2 2026-05-05 18:23 1.0M
20260505T12Z_MSC_CAPS_SpecificHumidity_IsbL-0150_RLatLon0.03_PT040H.grib2 2026-05-05 18:23 782K
20260505T12Z_MSC_CAPS_SpecificHumidity_IsbL-0175_RLatLon0.03_PT040H.grib2 2026-05-05 18:23 1.0M
20260505T12Z_MSC_CAPS_SpecificHumidity_IsbL-0200_RLatLon0.03_PT040H.grib2 2026-05-05 18:23 903K
20260505T12Z_MSC_CAPS_SpecificHumidity_IsbL-0225_RLatLon0.03_PT040H.grib2 2026-05-05 18:23 1.1M
20260505T12Z_MSC_CAPS_SpecificHumidity_IsbL-0250_RLatLon0.03_PT040H.grib2 2026-05-05 18:23 1.1M
20260505T12Z_MSC_CAPS_SpecificHumidity_IsbL-0275_RLatLon0.03_PT040H.grib2 2026-05-05 18:23 1.1M
20260505T12Z_MSC_CAPS_SpecificHumidity_IsbL-0300_RLatLon0.03_PT040H.grib2 2026-05-05 18:23 1.1M
20260505T12Z_MSC_CAPS_SpecificHumidity_IsbL-0350_RLatLon0.03_PT040H.grib2 2026-05-05 18:23 1.0M
20260505T12Z_MSC_CAPS_SpecificHumidity_IsbL-0400_RLatLon0.03_PT040H.grib2 2026-05-05 18:23 1.2M
20260505T12Z_MSC_CAPS_SpecificHumidity_IsbL-0450_RLatLon0.03_PT040H.grib2 2026-05-05 18:23 1.1M
20260505T12Z_MSC_CAPS_SpecificHumidity_IsbL-0500_RLatLon0.03_PT040H.grib2 2026-05-05 18:23 1.5M
20260505T12Z_MSC_CAPS_SpecificHumidity_IsbL-0550_RLatLon0.03_PT040H.grib2 2026-05-05 18:23 1.3M
20260505T12Z_MSC_CAPS_SpecificHumidity_IsbL-0600_RLatLon0.03_PT040H.grib2 2026-05-05 18:23 1.4M
20260505T12Z_MSC_CAPS_SpecificHumidity_IsbL-0650_RLatLon0.03_PT040H.grib2 2026-05-05 18:23 1.5M
20260505T12Z_MSC_CAPS_SpecificHumidity_IsbL-0700_RLatLon0.03_PT040H.grib2 2026-05-05 18:23 1.7M
20260505T12Z_MSC_CAPS_SpecificHumidity_IsbL-0750_RLatLon0.03_PT040H.grib2 2026-05-05 18:23 1.5M
20260505T12Z_MSC_CAPS_SpecificHumidity_IsbL-0800_RLatLon0.03_PT040H.grib2 2026-05-05 18:23 1.6M
20260505T12Z_MSC_CAPS_SpecificHumidity_IsbL-0850_RLatLon0.03_PT040H.grib2 2026-05-05 18:23 1.8M
20260505T12Z_MSC_CAPS_SpecificHumidity_IsbL-0875_RLatLon0.03_PT040H.grib2 2026-05-05 18:23 1.9M
20260505T12Z_MSC_CAPS_SpecificHumidity_IsbL-0900_RLatLon0.03_PT040H.grib2 2026-05-05 18:23 2.0M
20260505T12Z_MSC_CAPS_SpecificHumidity_IsbL-0925_RLatLon0.03_PT040H.grib2 2026-05-05 18:23 2.0M
20260505T12Z_MSC_CAPS_SpecificHumidity_IsbL-0950_RLatLon0.03_PT040H.grib2 2026-05-05 18:23 2.1M
20260505T12Z_MSC_CAPS_SpecificHumidity_IsbL-0970_RLatLon0.03_PT040H.grib2 2026-05-05 18:23 2.1M
20260505T12Z_MSC_CAPS_SpecificHumidity_IsbL-0985_RLatLon0.03_PT040H.grib2 2026-05-05 18:23 2.2M
20260505T12Z_MSC_CAPS_SpecificHumidity_IsbL-1000_RLatLon0.03_PT040H.grib2 2026-05-05 18:23 2.2M
20260505T12Z_MSC_CAPS_SpecificHumidity_IsbL-1015_RLatLon0.03_PT040H.grib2 2026-05-05 18:23 2.2M
20260505T12Z_MSC_CAPS_SpecificHumidity_Sfc_RLatLon0.03_PT040H.grib2 2026-05-05 18:23 2.1M
20260505T12Z_MSC_CAPS_StormRelativeHelicity_Sfc_RLatLon0.03_PT040H.grib2 2026-05-05 18:23 3.2M
20260505T12Z_MSC_CAPS_Thickness_IsbL-1000to0500_RLatLon0.03_PT040H.grib2 2026-05-05 18:23 411K
20260505T12Z_MSC_CAPS_TotalCloudCover_Sfc_RLatLon0.03_PT040H.grib2 2026-05-05 18:23 3.9M
20260505T12Z_MSC_CAPS_TurboclineDepth_Sfc_RLatLon0.03_PT040H.nc 2026-05-05 18:13 16M
20260505T12Z_MSC_CAPS_UpwardLongwaveRadiationFlux_NTAtm_RLatLon0.03_PT040H.grib2 2026-05-05 18:23 3.0M
20260505T12Z_MSC_CAPS_UpwardShortwaveRadiationFlux_NTAtm_RLatLon0.03_PT040H.grib2 2026-05-05 18:23 2.0M
20260505T12Z_MSC_CAPS_VerticalVelocity_IsbL-0250_RLatLon0.03_PT040H.grib2 2026-05-05 18:23 913K
20260505T12Z_MSC_CAPS_VerticalVelocity_IsbL-0500_RLatLon0.03_PT040H.grib2 2026-05-05 18:23 1.2M
20260505T12Z_MSC_CAPS_VerticalVelocity_IsbL-0700_RLatLon0.03_PT040H.grib2 2026-05-05 18:23 970K
20260505T12Z_MSC_CAPS_VerticalVelocity_IsbL-0850_RLatLon0.03_PT040H.grib2 2026-05-05 18:23 1.1M
20260505T12Z_MSC_CAPS_VerticalVelocity_IsbL-1000_RLatLon0.03_PT040H.grib2 2026-05-05 18:23 1.4M
20260505T12Z_MSC_CAPS_WindDir_AGL-10m_RLatLon0.03_PT040H.grib2 2026-05-05 18:23 2.4M
20260505T12Z_MSC_CAPS_WindDir_AGL-120m_RLatLon0.03_PT040H.grib2 2026-05-05 18:23 1.2M
20260505T12Z_MSC_CAPS_WindDir_AGL-40m_RLatLon0.03_PT040H.grib2 2026-05-05 18:23 1.3M
20260505T12Z_MSC_CAPS_WindDir_AGL-80m_RLatLon0.03_PT040H.grib2 2026-05-05 18:23 1.3M
20260505T12Z_MSC_CAPS_WindDir_IsbL-0050_RLatLon0.03_PT040H.grib2 2026-05-05 18:23 1.1M
20260505T12Z_MSC_CAPS_WindDir_IsbL-0100_RLatLon0.03_PT040H.grib2 2026-05-05 18:23 1.0M
20260505T12Z_MSC_CAPS_WindDir_IsbL-0150_RLatLon0.03_PT040H.grib2 2026-05-05 18:23 1.0M
20260505T12Z_MSC_CAPS_WindDir_IsbL-0175_RLatLon0.03_PT040H.grib2 2026-05-05 18:23 1.0M
20260505T12Z_MSC_CAPS_WindDir_IsbL-0200_RLatLon0.03_PT040H.grib2 2026-05-05 18:23 1.1M
20260505T12Z_MSC_CAPS_WindDir_IsbL-0225_RLatLon0.03_PT040H.grib2 2026-05-05 18:23 1.1M
20260505T12Z_MSC_CAPS_WindDir_IsbL-0250_RLatLon0.03_PT040H.grib2 2026-05-05 18:23 1.1M
20260505T12Z_MSC_CAPS_WindDir_IsbL-0275_RLatLon0.03_PT040H.grib2 2026-05-05 18:23 1.1M
20260505T12Z_MSC_CAPS_WindDir_IsbL-0300_RLatLon0.03_PT040H.grib2 2026-05-05 18:23 1.1M
20260505T12Z_MSC_CAPS_WindDir_IsbL-0350_RLatLon0.03_PT040H.grib2 2026-05-05 18:23 1.1M
20260505T12Z_MSC_CAPS_WindDir_IsbL-0400_RLatLon0.03_PT040H.grib2 2026-05-05 18:23 1.2M
20260505T12Z_MSC_CAPS_WindDir_IsbL-0450_RLatLon0.03_PT040H.grib2 2026-05-05 18:23 1.2M
20260505T12Z_MSC_CAPS_WindDir_IsbL-0500_RLatLon0.03_PT040H.grib2 2026-05-05 18:23 1.2M
20260505T12Z_MSC_CAPS_WindDir_IsbL-0550_RLatLon0.03_PT040H.grib2 2026-05-05 18:23 1.2M
20260505T12Z_MSC_CAPS_WindDir_IsbL-0600_RLatLon0.03_PT040H.grib2 2026-05-05 18:23 1.3M
20260505T12Z_MSC_CAPS_WindDir_IsbL-0650_RLatLon0.03_PT040H.grib2 2026-05-05 18:23 1.4M
20260505T12Z_MSC_CAPS_WindDir_IsbL-0700_RLatLon0.03_PT040H.grib2 2026-05-05 18:23 1.5M
20260505T12Z_MSC_CAPS_WindDir_IsbL-0750_RLatLon0.03_PT040H.grib2 2026-05-05 18:23 1.7M
20260505T12Z_MSC_CAPS_WindDir_IsbL-0800_RLatLon0.03_PT040H.grib2 2026-05-05 18:23 1.7M
20260505T12Z_MSC_CAPS_WindDir_IsbL-0850_RLatLon0.03_PT040H.grib2 2026-05-05 18:23 1.8M
20260505T12Z_MSC_CAPS_WindDir_IsbL-0875_RLatLon0.03_PT040H.grib2 2026-05-05 18:23 1.9M
20260505T12Z_MSC_CAPS_WindDir_IsbL-0900_RLatLon0.03_PT040H.grib2 2026-05-05 18:23 1.9M
20260505T12Z_MSC_CAPS_WindDir_IsbL-0925_RLatLon0.03_PT040H.grib2 2026-05-05 18:23 2.0M
20260505T12Z_MSC_CAPS_WindDir_IsbL-0950_RLatLon0.03_PT040H.grib2 2026-05-05 18:23 2.1M
20260505T12Z_MSC_CAPS_WindDir_IsbL-0970_RLatLon0.03_PT040H.grib2 2026-05-05 18:23 2.1M
20260505T12Z_MSC_CAPS_WindDir_IsbL-0985_RLatLon0.03_PT040H.grib2 2026-05-05 18:23 2.2M
20260505T12Z_MSC_CAPS_WindDir_IsbL-1000_RLatLon0.03_PT040H.grib2 2026-05-05 18:23 2.3M
20260505T12Z_MSC_CAPS_WindDir_IsbL-1015_RLatLon0.03_PT040H.grib2 2026-05-05 18:23 2.4M
20260505T12Z_MSC_CAPS_WindGust-Max_AGL-10m_RLatLon0.03_PT040H.grib2 2026-05-05 18:23 2.4M
20260505T12Z_MSC_CAPS_WindGust-Min_AGL-10m_RLatLon0.03_PT040H.grib2 2026-05-05 18:23 2.4M
20260505T12Z_MSC_CAPS_WindGust_AGL-10m_RLatLon0.03_PT040H.grib2 2026-05-05 18:23 2.5M
20260505T12Z_MSC_CAPS_WindSpeed_AGL-10m_RLatLon0.03_PT040H.grib2 2026-05-05 18:23 2.1M
20260505T12Z_MSC_CAPS_WindSpeed_AGL-120m_RLatLon0.03_PT040H.grib2 2026-05-05 18:23 1.1M
20260505T12Z_MSC_CAPS_WindSpeed_AGL-40m_RLatLon0.03_PT040H.grib2 2026-05-05 18:23 1.2M
20260505T12Z_MSC_CAPS_WindSpeed_AGL-80m_RLatLon0.03_PT040H.grib2 2026-05-05 18:23 1.1M
20260505T12Z_MSC_CAPS_WindSpeed_IsbL-0050_RLatLon0.03_PT040H.grib2 2026-05-05 18:23 947K
20260505T12Z_MSC_CAPS_WindSpeed_IsbL-0100_RLatLon0.03_PT040H.grib2 2026-05-05 18:23 1.3M
20260505T12Z_MSC_CAPS_WindSpeed_IsbL-0150_RLatLon0.03_PT040H.grib2 2026-05-05 18:23 1.0M
20260505T12Z_MSC_CAPS_WindSpeed_IsbL-0175_RLatLon0.03_PT040H.grib2 2026-05-05 18:23 1.1M
20260505T12Z_MSC_CAPS_WindSpeed_IsbL-0200_RLatLon0.03_PT040H.grib2 2026-05-05 18:23 1.3M
20260505T12Z_MSC_CAPS_WindSpeed_IsbL-0225_RLatLon0.03_PT040H.grib2 2026-05-05 18:23 960K
20260505T12Z_MSC_CAPS_WindSpeed_IsbL-0250_RLatLon0.03_PT040H.grib2 2026-05-05 18:23 1.0M
20260505T12Z_MSC_CAPS_WindSpeed_IsbL-0275_RLatLon0.03_PT040H.grib2 2026-05-05 18:23 1.0M
20260505T12Z_MSC_CAPS_WindSpeed_IsbL-0300_RLatLon0.03_PT040H.grib2 2026-05-05 18:23 1.0M
20260505T12Z_MSC_CAPS_WindSpeed_IsbL-0350_RLatLon0.03_PT040H.grib2 2026-05-05 18:23 1.0M
20260505T12Z_MSC_CAPS_WindSpeed_IsbL-0400_RLatLon0.03_PT040H.grib2 2026-05-05 18:23 1.0M
20260505T12Z_MSC_CAPS_WindSpeed_IsbL-0450_RLatLon0.03_PT040H.grib2 2026-05-05 18:23 1.3M
20260505T12Z_MSC_CAPS_WindSpeed_IsbL-0500_RLatLon0.03_PT040H.grib2 2026-05-05 18:23 1.3M
20260505T12Z_MSC_CAPS_WindSpeed_IsbL-0550_RLatLon0.03_PT040H.grib2 2026-05-05 18:23 1.4M
20260505T12Z_MSC_CAPS_WindSpeed_IsbL-0600_RLatLon0.03_PT040H.grib2 2026-05-05 18:23 1.4M
20260505T12Z_MSC_CAPS_WindSpeed_IsbL-0650_RLatLon0.03_PT040H.grib2 2026-05-05 18:23 1.5M
20260505T12Z_MSC_CAPS_WindSpeed_IsbL-0700_RLatLon0.03_PT040H.grib2 2026-05-05 18:23 1.5M
20260505T12Z_MSC_CAPS_WindSpeed_IsbL-0750_RLatLon0.03_PT040H.grib2 2026-05-05 18:23 1.6M
20260505T12Z_MSC_CAPS_WindSpeed_IsbL-0800_RLatLon0.03_PT040H.grib2 2026-05-05 18:23 1.6M
20260505T12Z_MSC_CAPS_WindSpeed_IsbL-0850_RLatLon0.03_PT040H.grib2 2026-05-05 18:23 1.6M
20260505T12Z_MSC_CAPS_WindSpeed_IsbL-0875_RLatLon0.03_PT040H.grib2 2026-05-05 18:23 1.8M
20260505T12Z_MSC_CAPS_WindSpeed_IsbL-0900_RLatLon0.03_PT040H.grib2 2026-05-05 18:23 1.9M
20260505T12Z_MSC_CAPS_WindSpeed_IsbL-0925_RLatLon0.03_PT040H.grib2 2026-05-05 18:23 1.9M
20260505T12Z_MSC_CAPS_WindSpeed_IsbL-0950_RLatLon0.03_PT040H.grib2 2026-05-05 18:23 2.0M
20260505T12Z_MSC_CAPS_WindSpeed_IsbL-0970_RLatLon0.03_PT040H.grib2 2026-05-05 18:23 2.0M
20260505T12Z_MSC_CAPS_WindSpeed_IsbL-0985_RLatLon0.03_PT040H.grib2 2026-05-05 18:23 2.0M
20260505T12Z_MSC_CAPS_WindSpeed_IsbL-1000_RLatLon0.03_PT040H.grib2 2026-05-05 18:23 2.1M
20260505T12Z_MSC_CAPS_WindSpeed_IsbL-1015_RLatLon0.03_PT040H.grib2 2026-05-05 18:23 2.1M
20260505T12Z_MSC_CAPS_WindU_AGL-10m_RLatLon0.03_PT040H.grib2 2026-05-05 18:23 1.9M
20260505T12Z_MSC_CAPS_WindU_AGL-120m_RLatLon0.03_PT040H.grib2 2026-05-05 18:23 892K
20260505T12Z_MSC_CAPS_WindU_AGL-40m_RLatLon0.03_PT040H.grib2 2026-05-05 18:23 1.2M
20260505T12Z_MSC_CAPS_WindU_AGL-80m_RLatLon0.03_PT040H.grib2 2026-05-05 18:23 1.2M
20260505T12Z_MSC_CAPS_WindU_IsbL-0050_RLatLon0.03_PT040H.grib2 2026-05-05 18:23 714K
20260505T12Z_MSC_CAPS_WindU_IsbL-0100_RLatLon0.03_PT040H.grib2 2026-05-05 18:23 956K
20260505T12Z_MSC_CAPS_WindU_IsbL-0150_RLatLon0.03_PT040H.grib2 2026-05-05 18:23 916K
20260505T12Z_MSC_CAPS_WindU_IsbL-0175_RLatLon0.03_PT040H.grib2 2026-05-05 18:23 731K
20260505T12Z_MSC_CAPS_WindU_IsbL-0200_RLatLon0.03_PT040H.grib2 2026-05-05 18:23 757K
20260505T12Z_MSC_CAPS_WindU_IsbL-0225_RLatLon0.03_PT040H.grib2 2026-05-05 18:23 900K
20260505T12Z_MSC_CAPS_WindU_IsbL-0250_RLatLon0.03_PT040H.grib2 2026-05-05 18:23 918K
20260505T12Z_MSC_CAPS_WindU_IsbL-0275_RLatLon0.03_PT040H.grib2 2026-05-05 18:23 921K
20260505T12Z_MSC_CAPS_WindU_IsbL-0300_RLatLon0.03_PT040H.grib2 2026-05-05 18:23 927K
20260505T12Z_MSC_CAPS_WindU_IsbL-0350_RLatLon0.03_PT040H.grib2 2026-05-05 18:23 941K
20260505T12Z_MSC_CAPS_WindU_IsbL-0400_RLatLon0.03_PT040H.grib2 2026-05-05 18:23 950K
20260505T12Z_MSC_CAPS_WindU_IsbL-0450_RLatLon0.03_PT040H.grib2 2026-05-05 18:23 970K
20260505T12Z_MSC_CAPS_WindU_IsbL-0500_RLatLon0.03_PT040H.grib2 2026-05-05 18:23 876K
20260505T12Z_MSC_CAPS_WindU_IsbL-0550_RLatLon0.03_PT040H.grib2 2026-05-05 18:23 908K
20260505T12Z_MSC_CAPS_WindU_IsbL-0600_RLatLon0.03_PT040H.grib2 2026-05-05 18:23 939K
20260505T12Z_MSC_CAPS_WindU_IsbL-0650_RLatLon0.03_PT040H.grib2 2026-05-05 18:23 1.0M
20260505T12Z_MSC_CAPS_WindU_IsbL-0700_RLatLon0.03_PT040H.grib2 2026-05-05 18:23 1.0M
20260505T12Z_MSC_CAPS_WindU_IsbL-0750_RLatLon0.03_PT040H.grib2 2026-05-05 18:23 1.2M
20260505T12Z_MSC_CAPS_WindU_IsbL-0800_RLatLon0.03_PT040H.grib2 2026-05-05 18:23 1.2M
20260505T12Z_MSC_CAPS_WindU_IsbL-0850_RLatLon0.03_PT040H.grib2 2026-05-05 18:23 1.2M
20260505T12Z_MSC_CAPS_WindU_IsbL-0875_RLatLon0.03_PT040H.grib2 2026-05-05 18:23 1.3M
20260505T12Z_MSC_CAPS_WindU_IsbL-0900_RLatLon0.03_PT040H.grib2 2026-05-05 18:23 1.3M
20260505T12Z_MSC_CAPS_WindU_IsbL-0925_RLatLon0.03_PT040H.grib2 2026-05-05 18:23 1.3M
20260505T12Z_MSC_CAPS_WindU_IsbL-0950_RLatLon0.03_PT040H.grib2 2026-05-05 18:23 1.4M
20260505T12Z_MSC_CAPS_WindU_IsbL-0970_RLatLon0.03_PT040H.grib2 2026-05-05 18:23 1.4M
20260505T12Z_MSC_CAPS_WindU_IsbL-0985_RLatLon0.03_PT040H.grib2 2026-05-05 18:23 1.4M
20260505T12Z_MSC_CAPS_WindU_IsbL-1000_RLatLon0.03_PT040H.grib2 2026-05-05 18:23 1.5M
20260505T12Z_MSC_CAPS_WindU_IsbL-1015_RLatLon0.03_PT040H.grib2 2026-05-05 18:23 1.9M
20260505T12Z_MSC_CAPS_WindV_AGL-10m_RLatLon0.03_PT040H.grib2 2026-05-05 18:23 2.0M
20260505T12Z_MSC_CAPS_WindV_AGL-120m_RLatLon0.03_PT040H.grib2 2026-05-05 18:23 1.2M
20260505T12Z_MSC_CAPS_WindV_AGL-40m_RLatLon0.03_PT040H.grib2 2026-05-05 18:23 1.2M
20260505T12Z_MSC_CAPS_WindV_AGL-80m_RLatLon0.03_PT040H.grib2 2026-05-05 18:23 1.2M
20260505T12Z_MSC_CAPS_WindV_IsbL-0050_RLatLon0.03_PT040H.grib2 2026-05-05 18:23 765K
20260505T12Z_MSC_CAPS_WindV_IsbL-0100_RLatLon0.03_PT040H.grib2 2026-05-05 18:23 784K
20260505T12Z_MSC_CAPS_WindV_IsbL-0150_RLatLon0.03_PT040H.grib2 2026-05-05 18:23 1.0M
20260505T12Z_MSC_CAPS_WindV_IsbL-0175_RLatLon0.03_PT040H.grib2 2026-05-05 18:23 726K
20260505T12Z_MSC_CAPS_WindV_IsbL-0200_RLatLon0.03_PT040H.grib2 2026-05-05 18:23 873K
20260505T12Z_MSC_CAPS_WindV_IsbL-0225_RLatLon0.03_PT040H.grib2 2026-05-05 18:23 890K
20260505T12Z_MSC_CAPS_WindV_IsbL-0250_RLatLon0.03_PT040H.grib2 2026-05-05 18:23 911K
20260505T12Z_MSC_CAPS_WindV_IsbL-0275_RLatLon0.03_PT040H.grib2 2026-05-05 18:23 916K
20260505T12Z_MSC_CAPS_WindV_IsbL-0300_RLatLon0.03_PT040H.grib2 2026-05-05 18:23 923K
20260505T12Z_MSC_CAPS_WindV_IsbL-0350_RLatLon0.03_PT040H.grib2 2026-05-05 18:23 938K
20260505T12Z_MSC_CAPS_WindV_IsbL-0400_RLatLon0.03_PT040H.grib2 2026-05-05 18:23 948K
20260505T12Z_MSC_CAPS_WindV_IsbL-0450_RLatLon0.03_PT040H.grib2 2026-05-05 18:23 967K
20260505T12Z_MSC_CAPS_WindV_IsbL-0500_RLatLon0.03_PT040H.grib2 2026-05-05 18:23 1.0M
20260505T12Z_MSC_CAPS_WindV_IsbL-0550_RLatLon0.03_PT040H.grib2 2026-05-05 18:23 902K
20260505T12Z_MSC_CAPS_WindV_IsbL-0600_RLatLon0.03_PT040H.grib2 2026-05-05 18:23 931K
20260505T12Z_MSC_CAPS_WindV_IsbL-0650_RLatLon0.03_PT040H.grib2 2026-05-05 18:23 970K
20260505T12Z_MSC_CAPS_WindV_IsbL-0700_RLatLon0.03_PT040H.grib2 2026-05-05 18:23 1.0M
20260505T12Z_MSC_CAPS_WindV_IsbL-0750_RLatLon0.03_PT040H.grib2 2026-05-05 18:23 1.1M
20260505T12Z_MSC_CAPS_WindV_IsbL-0800_RLatLon0.03_PT040H.grib2 2026-05-05 18:23 1.1M
20260505T12Z_MSC_CAPS_WindV_IsbL-0850_RLatLon0.03_PT040H.grib2 2026-05-05 18:23 1.2M
20260505T12Z_MSC_CAPS_WindV_IsbL-0875_RLatLon0.03_PT040H.grib2 2026-05-05 18:23 1.2M
20260505T12Z_MSC_CAPS_WindV_IsbL-0900_RLatLon0.03_PT040H.grib2 2026-05-05 18:23 1.3M
20260505T12Z_MSC_CAPS_WindV_IsbL-0925_RLatLon0.03_PT040H.grib2 2026-05-05 18:23 1.3M
20260505T12Z_MSC_CAPS_WindV_IsbL-0950_RLatLon0.03_PT040H.grib2 2026-05-05 18:23 1.4M
20260505T12Z_MSC_CAPS_WindV_IsbL-0970_RLatLon0.03_PT040H.grib2 2026-05-05 18:23 1.4M
20260505T12Z_MSC_CAPS_WindV_IsbL-0985_RLatLon0.03_PT040H.grib2 2026-05-05 18:23 1.4M
20260505T12Z_MSC_CAPS_WindV_IsbL-1000_RLatLon0.03_PT040H.grib2 2026-05-05 18:23 1.8M
20260505T12Z_MSC_CAPS_WindV_IsbL-1015_RLatLon0.03_PT040H.grib2 2026-05-05 18:23 2.0M